Date String (YYYY-MM-DD hh:mm:ss) UTC,Instrument flags,Ambient pressure (hPa),Sample flow (lpm),Bypass flow (lpm),Sample temperature (°C),Ambient temperature (°C),ASC tube jacket temperature (°C),LED temperature (°C),Box temperature (°C),Sample RH (%),Span deviation,Mass concentration (μg/m³),Mass concentration (μg/m³),Mass concentration (μg/m³)
DateTimeUTC,F1_M11,P_M11,Q1_M11,Q2_M11,T1_M11,T2_M11,T3_M11,T4_M11,T5_M11,U1_M11,ZSPAN_M11,X0_M11,X2_M11,X1_M11
2021-08-27 22:00:00,,0824.0,5.00,0.00,28.9,26.5,00.0,38.0,30.6,20.4,0002.0,0014.05,0005.03,0004.35
2021-08-27 22:01:00,,0824.0,4.99,0.00,28.9,27.0,00.0,38.0,30.7,20.0,0001.9,0013.89,0005.03,0004.34
2021-08-27 22:02:00,,0823.9,5.01,0.00,29.0,27.4,00.0,38.0,30.8,20.3,0002.1,0013.82,0005.02,0004.34
2021-08-27 22:03:00,,0824.0,5.00,0.00,29.0,27.8,00.0,38.0,30.9,20.9,0002.3,0014.09,0004.98,0004.33
2021-08-27 22:04:00,,0824.0,5.00,0.00,29.1,28.1,00.0,38.0,31.0,21.0,0002.5,0013.02,0004.94,0004.32
2021-08-27 22:05:00,,0823.9,5.01,0.00,29.2,28.2,00.0,38.1,31.1,20.1,0002.4,0012.39,0004.92,0004.32
2021-08-27 22:06:00,,0823.9,4.99,0.00,29.1,26.9,00.0,38.1,30.7,19.4,0001.9,0012.74,0004.90,0004.32
2021-08-27 22:07:00,,0823.9,5.01,0.00,29.0,25.7,00.0,38.1,30.4,19.9,0001.7,0013.93,0004.91,0004.31
2021-08-27 22:08:00,,0824.0,4.99,0.00,28.9,26.0,00.0,38.0,30.5,20.2,0001.9,0013.90,0004.88,0004.31
2021-08-27 22:09:00,,0823.9,5.01,0.00,28.9,26.4,00.0,38.0,30.6,20.7,0002.3,0013.12,0004.85,0004.32
2021-08-27 22:10:00,,0824.0,4.99,0.00,28.9,26.9,00.0,38.0,30.7,20.6,0002.2,0014.03,0004.85,0004.31
2021-08-27 22:11:00,,0823.9,5.01,0.00,29.0,27.3,00.0,38.0,30.8,20.1,0002.3,0014.25,0004.86,0004.31
2021-08-27 22:12:00,,0824.0,4.99,0.00,29.0,27.7,00.0,38.0,30.9,19.6,0002.3,0014.25,0004.86,0004.30
2021-08-27 22:13:00,,0823.9,5.00,0.00,29.1,28.0,00.0,38.0,31.0,19.7,0002.2,0014.54,0004.83,0004.29
2021-08-27 22:14:00,,0823.9,5.02,0.00,29.2,28.3,00.0,38.0,31.1,19.8,0002.3,0014.14,0004.84,0004.29
2021-08-27 22:15:00,,0823.9,4.99,0.00,29.2,27.9,00.0,38.1,31.0,19.6,0002.3,0014.91,0004.84,0004.30
2021-08-27 22:16:00,,0823.9,5.00,0.00,29.1,26.2,00.0,38.1,30.5,19.8,0002.4,0015.56,0004.83,0004.29
2021-08-27 22:17:00,,0823.8,4.99,0.00,29.0,25.7,00.0,38.1,30.4,20.3,0002.9,0015.99,0004.89,0004.31
2021-08-27 22:18:00,,0823.8,5.01,0.00,28.9,26.2,00.0,38.0,30.5,20.7,0003.2,0015.16,0004.87,0004.30
2021-08-27 22:19:00,,0823.8,5.00,0.00,28.9,26.6,00.0,38.0,30.6,20.4,0003.1,0013.99,0004.83,0004.28
2021-08-27 22:20:00,,0823.9,5.01,0.00,28.9,27.1,00.0,38.0,30.7,19.5,0003.0,0014.17,0004.83,0004.28
2021-08-27 22:21:00,,0823.9,4.99,0.00,29.0,27.5,00.0,38.0,30.9,19.5,0003.1,0013.46,0004.88,0004.29
2021-08-27 22:22:00,,0823.9,5.01,0.00,29.1,27.9,00.0,38.0,31.0,19.1,0002.7,0012.92,0004.87,0004.28
2021-08-27 22:23:00,,0823.8,5.01,0.00,29.1,28.2,00.0,38.0,31.1,19.0,0002.5,0013.19,0004.82,0004.28
2021-08-27 22:24:00,,0823.8,4.99,0.00,29.2,28.3,00.0,38.1,31.1,19.2,0002.7,0012.88,0004.83,0004.29
2021-08-27 22:25:00,,0823.8,5.01,0.00,29.2,27.3,00.0,38.1,30.8,19.7,0002.6,0013.12,0004.87,0004.29
2021-08-27 22:26:00,,0823.8,5.01,0.00,29.0,25.8,00.0,38.1,30.4,19.8,0002.7,0012.95,0004.87,0004.28
2021-08-27 22:27:00,,0823.8,5.00,0.00,28.9,25.9,00.0,38.1,30.4,19.9,0002.7,0012.27,0004.86,0004.28
2021-08-27 22:28:00,,0823.8,5.00,0.00,28.9,26.3,00.0,38.0,30.5,19.7,0002.7,0011.57,0004.82,0004.27
2021-08-27 22:29:00,,0823.8,4.99,0.00,28.9,26.8,00.0,38.0,30.6,19.5,0002.6,0011.03,0004.81,0004.26
2021-08-27 22:30:00,,0823.7,5.00,0.00,28.9,27.2,00.0,38.0,30.7,19.4,0002.3,0011.22,0004.84,0004.27
2021-08-27 22:31:00,,0823.8,5.00,0.00,29.0,27.6,00.0,38.0,30.9,19.6,0002.1,0011.61,0004.82,0004.27
2021-08-27 22:32:00,,0823.8,4.99,0.00,29.1,27.9,00.0,38.0,31.0,19.5,0002.2,0011.78,0004.81,0004.26
2021-08-27 22:33:00,,0823.7,5.00,0.00,29.1,28.2,00.0,38.1,31.1,19.5,0002.3,0011.84,0004.79,0004.26
2021-08-27 22:34:00,,0823.7,5.00,0.00,29.2,28.1,00.0,38.1,31.1,19.4,0002.6,0011.43,0004.83,0004.27
2021-08-27 22:35:00,,0823.7,5.00,0.00,29.1,26.6,00.0,38.1,30.7,19.9,0002.5,0011.83,0004.85,0004.27
2021-08-27 22:36:00,,0823.7,5.00,0.00,29.0,25.7,00.0,38.1,30.4,20.9,0002.2,0011.61,0004.82,0004.25
2021-08-27 22:37:00,,0823.7,5.01,0.00,28.9,26.1,00.0,38.1,30.5,20.1,0001.8,0011.75,0004.81,0004.24
2021-08-27 22:38:00,,0823.7,4.99,0.00,28.9,26.5,00.0,38.0,30.6,20.2,0001.7,0011.57,0004.82,0004.24
2021-08-27 22:39:00,,0823.8,5.01,0.00,28.9,27.0,00.0,38.0,30.7,20.2,0001.6,0011.43,0004.81,0004.24
2021-08-27 22:40:00,,0823.7,4.99,0.00,29.0,27.4,00.0,38.0,30.8,19.4,0001.5,0011.24,0004.78,0004.24
2021-08-27 22:41:00,,0823.7,5.00,0.00,29.0,27.8,00.0,38.0,30.9,19.4,0001.4,0011.17,0004.79,0004.24
2021-08-27 22:42:00,,0823.7,5.00,0.00,29.1,28.1,00.0,38.1,31.0,20.3,0001.5,0011.43,0004.81,0004.23
2021-08-27 22:43:00,,0823.7,5.00,0.00,29.2,28.1,00.0,38.1,31.1,19.8,0000.9,0010.82,0004.76,0004.23
2021-08-27 22:44:00,,0823.7,5.01,0.00,29.1,26.6,00.0,38.1,30.6,20.2,0001.2,0010.48,0004.75,0004.23
2021-08-27 22:45:00,,0823.7,5.01,0.00,29.0,25.6,00.0,38.1,30.3,21.1,0001.4,0010.34,0004.71,0004.22
2021-08-27 22:46:00,,0823.7,4.99,0.00,28.9,26.0,00.0,38.1,30.4,20.6,0001.7,0010.00,0004.70,0004.21
2021-08-27 22:47:00,,0823.7,5.00,0.00,28.9,26.4,00.0,38.0,30.5,19.8,0001.9,0010.12,0004.68,0004.22
2021-08-27 22:48:00,,0823.7,5.01,0.00,28.9,26.9,00.0,38.0,30.6,19.5,0002.3,0009.87,0004.68,0004.23
2021-08-27 22:49:00,,0823.7,4.99,0.00,29.0,27.3,00.0,38.0,30.8,19.7,0002.4,0009.72,0004.66,0004.22
2021-08-27 22:50:00,,0823.6,5.01,0.00,29.0,27.7,00.0,38.0,30.9,19.3,0002.2,0010.00,0004.72,0004.23
2021-08-27 22:51:00,,0823.7,4.99,0.00,29.1,28.0,00.0,38.0,31.0,19.1,0002.4,0010.26,0004.77,0004.26
2021-08-27 22:52:00,,0823.7,5.02,0.00,29.2,28.1,00.0,38.1,31.1,19.0,0002.4,0010.52,0004.79,0004.27
2021-08-27 22:53:00,,0823.7,5.00,0.00,29.1,26.7,00.0,38.1,30.7,19.1,0002.6,0009.75,0004.82,0004.28
2021-08-27 22:54:00,,0823.7,4.99,0.00,29.0,25.7,00.0,38.0,30.4,19.5,0002.6,0009.63,0004.83,0004.29
2021-08-27 22:55:00,,0823.6,5.00,0.00,28.9,26.0,00.0,38.0,30.5,19.8,0002.5,0010.07,0004.85,0004.30
2021-08-27 22:56:00,,0823.6,5.01,0.00,28.9,26.5,00.0,38.0,30.5,19.3,0002.4,0011.14,0004.90,0004.31
2021-08-27 22:57:00,,0823.6,5.00,0.00,28.9,26.9,00.0,38.0,30.7,19.4,0002.6,0011.35,0004.90,0004.33
2021-08-27 22:58:00,,0823.6,4.99,0.00,29.0,27.4,00.0,38.0,30.8,19.4,0002.4,0011.81,0004.92,0004.34
2021-08-27 22:59:00,,0823.6,5.01,0.00,29.0,27.7,00.0,38.0,30.9,19.6,0002.5,0011.42,0004.93,0004.35
